| time (UTC) | temp C | wind direction | speed KPH | gust KPH | rain 1hr cm | rain 24hr cm | rain mn cm | humidity % | barometer mb |
| 20260505231006 | 24 | 266 | 1.6 | 4.8 | 0.00 | 0.00 | 0.00 | 55 | 1013.8 |
| 20260505230007 | 24 | 180 | 1.6 | 4.8 | 0.00 | 0.00 | 0.00 | 54 | 1013.6 |
| 20260505225007 | 24 | 180 | 1.6 | 4.8 | 0.00 | 0.00 | 0.00 | 54 | 1013.6 |
| 20260505224007 | 25 | 180 | 1.6 | 4.8 | 0.00 | 0.00 | 0.00 | 53 | 1013.5 |
| 20260505223007 | 25 | 180 | 1.6 | 4.8 | 0.00 | 0.00 | 0.00 | 52 | 1013.7 |
| 20260505222006 | 25 | 180 | 1.6 | 4.8 | 0.00 | 0.00 | 0.00 | 51 | 1013.6 |
| 20260505221006 | 25 | 180 | 1.6 | 4.8 | 0.00 | 0.00 | 0.00 | 51 | 1013.5 |
| 20260505220006 | 25 | 180 | 1.6 | 4.8 | 0.00 | 0.00 | 0.00 | 51 | 1013.6 |
| 20260505215006 | 25 | 183 | 1.6 | 4.8 | 0.00 | 0.00 | 0.00 | 50 | 1013.7 |
| 20260505214006 | 25 | 135 | 1.6 | 4.8 | 0.00 | 0.00 | 0.00 | 49 | 1013.6 |
| 20260505213006 | 25 | 180 | 1.6 | 4.8 | 0.00 | 0.00 | 0.00 | 48 | 1013.7 |
| 20260505212006 | 26 | 180 | 1.6 | 4.8 | 0.00 | 0.00 | 0.00 | 47 | 1013.6 |
| 20260505211006 | 26 | 180 | 1.6 | 4.8 | 0.00 | 0.00 | 0.00 | 47 | 1013.7 |
| 20260505210006 | 26 | 180 | 3.2 | 4.8 | 0.00 | 0.00 | 0.00 | 47 | 1013.7 |
| 20260505205006 | 26 | 180 | 1.6 | 4.8 | 0.00 | 0.00 | 0.00 | 46 | 1013.6 |
| 20260505204007 | 27 | 180 | 1.6 | 4.8 | 0.00 | 0.00 | 0.00 | 45 | 1013.6 |
| 20260505203006 | 27 | 222 | 3.2 | 4.8 | 0.00 | 0.00 | 0.00 | 44 | 1013.8 |
| 20260505202007 | 27 | 180 | 1.6 | 8.0 | 0.00 | 0.00 | 0.00 | 43 | 1013.7 |
| 20260505200006 | 28 | 138 | 1.6 | 4.8 | 0.00 | 0.00 | 0.00 | 43 | 1013.8 |
| 20260505195006 | 29 | 180 | 1.6 | 4.8 | 0.00 | 0.00 | 0.00 | 41 | 1014.0 |
| 20260505194007 | 29 | 225 | 1.6 | 8.0 | 0.00 | 0.00 | 0.00 | 41 | 1014.1 |
| 20260505193007 | 30 | 180 | 1.6 | 4.8 | 0.00 | 0.00 | 0.00 | 40 | 1014.0 |
| 20260505192006 | 30 | 180 | 1.6 | 4.8 | 0.00 | 0.00 | 0.00 | 41 | 1014.2 |
| 20260505191007 | 29 | 181 | 1.6 | 4.8 | 0.00 | 0.00 | 0.00 | 41 | 1014.5 |
| 20260505190006 | 29 | 180 | 1.6 | 4.8 | 0.00 | 0.00 | 0.00 | 41 | 1014.6 |
| 20260505185006 | 30 | 235 | 1.6 | 4.8 | 0.00 | 0.00 | 0.00 | 39 | 1014.8 |
| 20260505184006 | 30 | 135 | 1.6 | 9.7 | 0.00 | 0.00 | 0.00 | 41 | 1014.8 |
| 20260505183006 | 30 | 180 | 1.6 | 8.0 | 0.00 | 0.00 | 0.00 | 39 | 1014.5 |
| 20260505182006 | 29 | 180 | 1.6 | 4.8 | 0.00 | 0.00 | 0.00 | 41 | 1014.6 |
| 20260505181006 | 29 | 92 | 3.2 | 4.8 | 0.00 | 0.00 | 0.00 | 39 | 1014.6 |
| 20260505180006 | 29 | 220 | 1.6 | 9.7 | 0.00 | 0.00 | 0.00 | 40 | 1014.6 |
| 20260505175006 | 29 | 94 | 1.6 | 4.8 | 0.00 | 0.00 | 0.00 | 41 | 1014.6 |
| 20260505173006 | 27 | 180 | 1.6 | 4.8 | 0.00 | 0.00 | 0.00 | 49 | 1015.1 |
| 20260505172006 | 26 | 180 | 1.6 | 4.8 | 0.00 | 0.00 | 0.00 | 49 | 1015.2 |
| 20260505171006 | 26 | 138 | 0.0 | 4.8 | 0.00 | 0.00 | 0.00 | 49 | 1015.2 |
| 20260505170006 | 25 | 138 | 1.6 | 3.2 | 0.00 | 0.00 | 0.00 | 51 | 1015.4 |
| 20260505164006 | 25 | 137 | 1.6 | 12.9 | 0.00 | 0.00 | 0.00 | 52 | 1015.5 |
| 20260505162006 | 25 | 90 | 1.6 | 4.8 | 0.00 | 0.00 | 0.00 | 51 | 1015.6 |
| 20260505161006 | 24 | 174 | 1.6 | 8.0 | 0.00 | 0.00 | 0.00 | 55 | 1015.9 |
| 20260505153007 | 24 | 173 | 3.2 | 9.7 | 0.00 | 0.00 | 0.00 | 53 | 1016.0 |
| 20260505152005 | 24 | 138 | 1.6 | 8.0 | 0.00 | 0.00 | 0.00 | 55 | 1016.0 |
| 20260505151006 | 23 | 93 | 1.6 | 4.8 | 0.00 | 0.00 | 0.00 | 57 | 1016.0 |
| 20260505125006 | 18 | 272 | 1.6 | 4.8 | 0.00 | 0.00 | 0.00 | 83 | 1015.9 |
| 20260505124005 | 17 | 270 | 0.0 | 0.0 | 0.00 | 0.00 | 0.00 | 89 | 1015.8 |
| 20260505122005 | 15 | 315 | 0.0 | 0.0 | 0.00 | 0.00 | 0.00 | 93 | 1015.8 |
| 20260505121005 | 14 | 315 | 0.0 | 0.0 | 0.00 | 0.00 | 0.00 | 94 | 1015.7 |
| 20260505120006 | 12 | 315 | 0.0 | 0.0 | 0.00 | 0.00 | 0.00 | 95 | 1015.7 |
| 20260505115005 | 11 | 315 | 0.0 | 0.0 | 0.00 | 0.00 | 0.00 | 96 | 1015.6 |
| 20260505114006 | 11 | 315 | 0.0 | 0.0 | 0.00 | 0.00 | 0.00 | 95 | 1015.5 |
| 20260505113005 | 10 | 315 | 0.0 | 0.0 | 0.00 | 0.00 | 0.00 | 95 | 1015.3 |
| 20260505112005 | 10 | 315 | 0.0 | 0.0 | 0.00 | 0.00 | 0.00 | 95 | 1015.3 |
| 20260505111005 | 10 | 315 | 0.0 | 0.0 | 0.00 | 0.00 | 0.00 | 95 | 1015.2 |
| 20260505102006 | 9 | 315 | 0.0 | 0.0 | 0.00 | 0.00 | 0.00 | 95 | 1014.6 |
| 20260505095005 | 10 | 315 | 0.0 | 0.0 | 0.00 | 0.00 | 0.00 | 95 | 1014.4 |
| 20260505094006 | 10 | 315 | 0.0 | 0.0 | 0.00 | 0.00 | 0.00 | 95 | 1014.5 |
| 20260505093005 | 10 | 315 | 0.0 | 0.0 | 0.00 | 0.00 | 0.00 | 95 | 1014.3 |
| 20260505092005 | 10 | 315 | 0.0 | 0.0 | 0.00 | 0.00 | 0.00 | 95 | 1014.3 |
| 20260505090005 | 10 | 45 | 0.0 | 0.0 | 0.00 | 0.00 | 0.00 | 95 | 1014.1 |
| 20260505085005 | 10 | 45 | 0.0 | 0.0 | 0.00 | 0.00 | 0.00 | 95 | 1014.0 |
| 20260505084005 | 10 | 315 | 0.0 | 0.0 | 0.00 | 0.00 | 0.00 | 94 | 1014.0 |
| 20260505083005 | 10 | 315 | 0.0 | 0.0 | 0.00 | 0.00 | 0.00 | 94 | 1013.9 |
| 20260505082005 | 10 | 45 | 0.0 | 0.0 | 0.00 | 0.00 | 0.00 | 94 | 1014.0 |
| 20260505081005 | 10 | 45 | 0.0 | 0.0 | 0.00 | 0.00 | 0.00 | 94 | 1013.9 |
| 20260505080005 | 10 | 45 | 0.0 | 0.0 | 0.00 | 0.00 | 0.00 | 94 | 1013.9 |
| 20260505075005 | 10 | 45 | 0.0 | 0.0 | 0.00 | 0.00 | 0.00 | 94 | 1013.9 |
| 20260505073005 | 10 | 45 | 0.0 | 0.0 | 0.00 | 0.00 | 0.00 | 93 | 1013.9 |
| 20260505072006 | 11 | 45 | 0.0 | 0.0 | 0.00 | 0.00 | 0.00 | 93 | 1013.8 |
| 20260505071005 | 11 | 45 | 0.0 | 0.0 | 0.00 | 0.00 | 0.00 | 92 | 1013.8 |
| 20260505070005 | 11 | 45 | 0.0 | 0.0 | 0.00 | 0.00 | 0.00 | 92 | 1013.8 |
| 20260505065006 | 11 | 45 | 0.0 | 0.0 | 0.00 | 0.00 | 0.00 | 92 | 1014.0 |
| 20260505063005 | 11 | 45 | 0.0 | 1.6 | 0.00 | 0.00 | 0.00 | 91 | 1014.0 |
| 20260505062006 | 11 | 45 | 0.0 | 0.0 | 0.00 | 0.00 | 0.00 | 91 | 1014.2 |
| 20260505055005 | 12 | 45 | 0.0 | 0.0 | 0.00 | 0.00 | 0.00 | 89 | 1014.3 |
| 20260505054005 | 12 | 45 | 0.0 | 0.0 | 0.00 | 0.00 | 0.00 | 88 | 1014.5 |
| 20260505052006 | 12 | 45 | 0.0 | 1.6 | 0.00 | 0.00 | 0.00 | 88 | 1014.7 |
| 20260505051007 | 12 | 45 | 0.0 | 0.0 | 0.00 | 0.00 | 0.00 | 87 | 1014.9 |
| 20260505041005 | 13 | 45 | 0.0 | 1.6 | 0.00 | 0.00 | 0.00 | 81 | 1014.7 |
| 20260505040005 | 13 | 45 | 0.0 | 1.6 | 0.00 | 0.00 | 0.00 | 82 | 1014.7 |
| 20260505035005 | 13 | 45 | 0.0 | 0.0 | 0.00 | 0.00 | 0.00 | 80 | 1014.8 |
| 20260505034005 | 13 | 45 | 0.0 | 1.6 | 0.00 | 0.00 | 0.00 | 80 | 1014.8 |
| 20260505033005 | 14 | 45 | 1.6 | 93.3 | 0.00 | 0.00 | 0.00 | 79 | 1014.7 |
| 20260505032006 | 15 | 90 | 93.3 | 93.3 | 0.00 | 0.00 | 0.00 | 74 | 1014.8 |
| 20260505030006 | 15 | 90 | 59.5 | 93.3 | 0.00 | 0.00 | 0.00 | 74 | 1014.8 |
| 20260505024006 | 15 | 90 | 0.0 | 1.6 | 0.00 | 0.00 | 0.00 | 72 | 1014.8 |
| 20260505023006 | 16 | 90 | 0.0 | 1.6 | 0.00 | 0.00 | 0.00 | 71 | 1014.8 |
| 20260505022006 | 16 | 90 | 0.0 | 1.6 | 0.00 | 0.00 | 0.00 | 71 | 1014.9 |
| 20260505021005 | 16 | 90 | 1.6 | 1.6 | 0.00 | 0.00 | 0.00 | 70 | 1014.8 |
| 20260505020005 | 16 | 90 | 0.0 | 0.0 | 0.00 | 0.00 | 0.00 | 69 | 1014.7 |
| 20260505015005 | 16 | 90 | 0.0 | 1.6 | 0.00 | 0.00 | 0.00 | 68 | 1014.6 |
| 20260505014005 | 16 | 90 | 0.0 | 1.6 | 0.00 | 0.00 | 0.00 | 68 | 1014.6 |
| 20260505013006 | 17 | 90 | 0.0 | 0.0 | 0.00 | 0.00 | 0.00 | 67 | 1014.6 |
| 20260505011005 | 17 | 90 | 0.0 | 1.6 | 0.00 | 0.00 | 0.00 | 64 | 1014.4 |
| 20260505010005 | 18 | 90 | 0.0 | 1.6 | 0.00 | 0.00 | 0.00 | 63 | 1014.3 |
| 20260505005005 | 18 | 180 | 0.0 | 93.3 | 0.00 | 0.00 | 0.00 | 62 | 1014.2 |
| 20260505004005 | 19 | 180 | 33.8 | 93.3 | 0.00 | 0.00 | 0.00 | 59 | 1014.2 |
| 20260505003005 | 19 | 180 | 0.0 | 1.6 | 0.00 | 0.00 | 0.00 | 59 | 1014.0 |
| 20260505002005 | 19 | 228 | 0.0 | 1.6 | 0.00 | 0.00 | 0.00 | 58 | 1014.0 |
| 20260505000005 | 20 | 180 | 1.6 | 3.2 | 0.00 | 0.00 | 0.00 | 55 | 1013.8 |
| 20260504235005 | 20 | 137 | 0.0 | 3.2 | 0.00 | 0.00 | 0.00 | 55 | 1013.8 |
| 20260504234006 | 21 | 180 | 1.6 | 1.6 | 0.00 | 0.00 | 0.00 | 52 | 1013.6 |
| 20260504233006 | 22 | 180 | 0.0 | 3.2 | 0.00 | 0.00 | 0.00 | 50 | 1013.6 |